DECAYED

STARLINK-6325, 56789 (Decayed)

Orbit data source: Space-Track

STARLINK-6325, 56789 was a payload satellite owned by SpaceX/Seattle (US) in LEO that was launched on Wed, 31 May 2023 UTC via an FALCON 9 launch vehicle from the Air Force Western Test Range (AFWTR). Payload-class satellites include a variety of spacecraft equipped with specific instruments for various scientific and technological missions. These include communications satellites like Starlink; space stations such as the ISS; scientific satellites like the Hubble; Earth observation satellites from companies like Planet Labs, Umbra, and HawkEye 360; GPS; miniature CubeSats for education and research; and military/defense satellites.

Not visible in the next 10 days
Identifier
56789, 2023-078Y
Orbit
Decayed
Country
Flag of USUS
Related business
Manufacturer
SpaceX/Seattle
Mission
Decayed Commercial Communications
Bus & Motor
STARLINK, Unknown motor
Mass
305 kg wet, ~290 kg dry
Launch date (UTC)
2023-05-31 (3 years ago)
Launch vehicle
FALCON 9
Launch site
Air Force Western Test Range (AFWTR)
Object type
Payload
Rocket body
Debris
Shape & HBR
Box + 1 Pan, 10.1 m
Radar Cross Section
11.087 m², Large (>1 m²)

Expand to show TLE details & history
Last TLE update: 9 months ago

TLE from 9 months ago
0 STARLINK-6325
1 56789U 23078Y   25259.79205772  .09225074  44375-5  26653-3 0  9999
2 56789  69.9883   6.3471 0009351 243.2105 116.8173 16.44579935128692
Epoch: 2025-09-16T19:00Z
TLE epoch observation values (Epoch: 2025-09-16T19:00:33.787Z)
Latitude
0.00007°
Longitude
85.22907°
Altitude
158.986 km
Speed
7.809 km/s
True Right ascension
00h 25m 23s
True Declination
0° 00' 00"
Sunlit
Object was in full shadow at epoch
Visualization orbit readout
Latitude
Unknown
Longitude
Unknown
Altitude
Unknown
Speed
Unknown
Apparent Right ascension
Unknown
Apparent Declination
Unknown
Sunlit
N/A
Visualization observer readout
Local Sidereal Time
21:30:06
Azimuth
Unknown
Elevation
Unknown
Doppler factor
Unknown
Orbital elements
Apogee altitude
157.571 km
Perigee altitude
145.359 km
Semi-major axis
6,529.602 km
Eccentricity
0.00094
Inclination
69.9883°
RAAN
6.3471°
Arg. of periapsis
243.2105°
True anomaly
116.91288°
Mean anomaly
116.8173°
Eccentric anomaly
116.86509°
Mean motion
4.11351 °/min
Orbital period
87.52 mins
BSTAR
0.00026653
Loading maneuver chart data...
Computing Atmospheric mass density...
Loading historical data...
Loading historical data...
Loading historical data...
Loading historical data...
Loading historical data...
Loading historical data...
Loading historical data...

Documentation

Showing up to 5 results
|